Location: Broekland
(52.3610°N, 6.2005°E)
Time: 06:11:57
(UTC+00:00)

BlueWalker 3 - Pass Details

Date: 19 May 2025
Orbit: 460 x 472 km, 53.2° (Epoch: 22 June)

Event Time Altitude Azimuth Distance (km) Brightness Sun altitude
Rises 21:03:18 0° 287° (WNW) 2,496 6.4 -10.8°
Reaches altitude 10° 21:05:32 10° 279° (W) 1,620 5.2 -11.0°
Maximum altitude 21:08:54 36° 211° (SSW) 750 2.6 -11.3°
Enters shadow 21:11:07 18° 153° (SSE) 1,201 3.2 -11.5°
